VU3OPX-13 Weather Reports


time (UTC)temp
F
wind
direction
speed
knots
gust
knots
rain 1hr
in
rain 24hr
in
rain mn
in
humidity
%
barometer
mb
20260504203620 71 279 6.1 0.0 0.00 0.00 8.26 94 1009.0
20260504200632 71 283 4.3 0.0 0.00 0.00 8.26 95 1010.0
20260504193645 71 283 4.3 0.0 0.00 0.00 8.26 95 1010.0
20260504190658 71 277 4.3 0.0 0.00 0.00 8.26 94 1010.0
20260504183710 71 277 4.3 0.0 0.00 0.00 8.26 94 1010.0
20260504180723 72 263 5.2 0.0 0.00 0.00 8.26 90 1010.0
20260504170748 74 259 7.0 0.0 0.00 0.00 8.26 82 1010.0
20260504150839 79 263 8.7 0.0 0.00 0.00 8.26 61 1009.0
20260504081132 98 279 10.4 0.0 0.00 0.00 8.26 16 1007.0
20260504044304 92 295 8.7 0.0 0.00 0.00 8.26 25 1010.0
20260504041317 87 290 7.8 0.0 0.00 0.00 8.26 36 1011.0
20260504034328 87 290 7.8 0.0 0.00 0.00 8.26 35 1011.0
20260504031342 80 279 5.2 0.0 0.00 0.00 8.26 56 1011.0
20260504024354 80 279 5.2 0.0 0.00 0.00 8.26 55 1011.0
20260504021407 74 268 4.3 0.0 0.00 0.00 8.26 80 1010.0
20260504014419 74 268 4.3 0.0 0.00 0.00 8.26 80 1010.0
20260504011431 70 261 4.3 0.0 0.00 0.00 8.26 95 1010.0
20260504004444 70 261 4.3 0.0 0.00 0.00 8.26 95 1009.0
20260504001457 70 255 4.3 0.0 0.00 0.00 8.26 96 1009.0
20260503234509 70 250 4.3 0.0 0.00 0.00 8.26 96 1009.0
20260503231521 70 251 4.3 0.0 0.00 0.00 8.26 94 1008.0
20260503224534 70 251 4.3 0.0 0.00 0.00 8.26 94 1008.0
20260503221546 71 252 4.3 0.0 0.00 0.00 8.26 93 1008.0
20260503214559 71 252 4.3 0.0 0.00 0.00 8.26 93 1008.0
20260503211612 71 259 5.2 0.0 0.00 0.00 8.26 92 1008.0